Weather Roundup
Issued by NWS

Home | Current Version | Previous Version | Text Only | Print | Product List | Glossary On
Versions: 1 2 3 4 5 6 7 8 9 10 11 12 13 14 15 16 17 18 19 20 21 22 23 24 25 26 27 28 29 30 31 32 33 34 35 36 37 38 39 40 41 42 43 44 45 46 47 48 49 50
000
NZUS93 KARX 201459
HRRWXR

CURRENT HOURLY OBSERVATIONS ACROSS
MUCH OF THE UPPER MISSISSIPPI VALLEY
NATIONAL WEATHER SERVICE LA CROSSE WI
900 AM CST SAT DEC 20 2014


...SOUTHEAST MINNESOTA...


CITY           SKY/WX    TMP DP  RH WIND       PRES   REMARKS
ROCHESTER      FOG       28  27  96 S9        30.16F VSB 1/4 WCI  19
ROCHESTER/MAYO CLOUDY    28  28  97 SE6       30.17S WCI  22
WINONA         CLOUDY    32  27  80 SE3       30.22S
AUSTIN         FOG       28  28 100 S5        30.15F VSB 1/4 WCI  23
ALBERT LEA     FOG       28  28 100 SE8       30.13F VSB 3/4 WCI  20
DODGE CENTER   FOG       28  28 100 S12       30.15S VSB 1/4 WCI  18
PRESTON        FOG       27  26  97 S8        30.18S VSB 1   WCI  19
OWATONNA       MIX PCPN  28  27  93 SE9       30.14F VSB 1   WCI  20
FARIBAULT      CLOUDY    30  28  93 SE8       30.14F FOG     WCI  23
$$

...ELSEWHERE IN MINNESOTA...


CITY           SKY/WX    TMP DP  RH WIND       PRES   REMARKS
MINNEAPOLIS    CLOUDY    30  26  85 SE7       30.15F FOG     WCI  23
INTNL FALLS    LGT SNOW  27  24  89 S5        30.05S FOG     WCI  22
DULUTH         LGT SNOW  27  23  85 SE7       30.11S FOG     WCI  19
RED WING       CLOUDY    30  27  86 SE6       30.18S FOG     WCI  24
REDWOOD FALLS  CLOUDY    31  28  89 S10       30.10R WCI  22
MANKATO        CLOUDY    30  25  80 S10       30.13S WCI  21
WORTHINGTON    CLOUDY    28  27  93 S9        30.08S WCI  20
FAIRMONT       CLOUDY    28  25  86 S9        30.12R WCI  20
$$

...SOUTHWEST WISCONSIN...


CITY           SKY/WX    TMP DP  RH WIND       PRES   REMARKS
LA CROSSE      CLOUDY    31  24  75 S8        30.22S WCI  23
PRAIRIE DU CHI MIX PCPN  29  26  88 SE5       30.24R WCI  24
BOSCOBEL       CLOUDY    30  25  81 CALM      30.25R
LONE ROCK      CLOUDY    31  24  75 E6        30.25S WCI  25
PLATTEVILLE    CLOUDY    28  26  92 CALM      30.24R
FORT MC COY    CLOUDY    28  24  83 SE5       30.23S WCI  23
CAMP DOUGLAS   FLURRIES  27  27 100 SE6       30.23R WCI  20
VIROQUA        CLOUDY    26  26 100 SE6       30.20S WCI  20
WIS DELLS      NOT AVBL
$$

...ELSEWHERE IN WISCONSIN...


CITY           SKY/WX    TMP DP  RH WIND       PRES   REMARKS
MILWAUKEE      CLOUDY    27  19  72 W3        30.28R
MADISON        LGT SNOW  27  23  85 S6        30.25R FOG     WCI  20
GREEN BAY      CLOUDY    24  21  88 CALM      30.27S FOG
EAU CLAIRE     CLOUDY    28  22  78 S6        30.19S WCI  22
BLACK RVR FLS  CLOUDY    29  24  82 CALM      30.21S
MEDFORD        CLOUDY    24  23  93 SE5       30.18S FOG     WCI  18
WAUSAU         CLOUDY    25  23  92 SE3       30.20S FOG
WIS RAPIDS     CLOUDY    26  22  84 S3        30.24R
MARSHFIELD     CLOUDY    26  23  88 S6        30.20S FOG     WCI  19
RICE LAKE      CLOUDY    28  24  86 SE7       30.18F WCI  21
$$

...NORTHEAST IOWA...


CITY           SKY/WX    TMP DP  RH WIND       PRES   REMARKS
DECORAH        CLOUDY    27  27 100 SE7       30.18S FOG     WCI  19
MASON CITY     FOG       29  28  96 SE9       30.17S VSB 3/4 WCI  20
CHARLES CITY   FOG       28  28 100 SE9       30.18S VSB 1/2 WCI  20
OELWEIN        CLOUDY    28  28 100 SE9       30.20R FOG     WCI  20
$$

...ELSEWHERE IN IOWA...


CITY           SKY/WX    TMP DP  RH WIND       PRES   REMARKS
DES MOINES     CLOUDY    32  29  88 SE5       30.18S FOG     WCI  27
IOWA CITY      CLOUDY    30  28  92 SE7       30.25R FOG     WCI  23
FORT DODGE     CLOUDY    30  25  80 SE5       30.15S WCI  25
$$

...NORTHERN ILLINOIS...


CITY           SKY/WX    TMP DP  RH WIND       PRES   REMARKS
CHICAGO-OHARE  CLOUDY    30  23  75 SW3       30.27S
CHICAGO-MIDWAY CLOUDY    32  26  78 S5        30.29R WCI  27
MOLINE         CLOUDY    31  25  78 E5        30.25R HAZE    WCI  26
ROCKFORD       CLOUDY    28  24  85 SE3       30.28S
PEORIA         CLOUDY    31  26  82 S3        30.27R HAZE
$$

NOTE: "FAIR" INDICATES FEW OR NO CLOUDS BELOW 12,000 FEET WITH NO
SIGNIFICANT WEATHER AND/OR OBSTRUCTIONS TO VISIBILITY. WIND
SPEEDS ARE IN MILES-PER-HOUR.



USA.gov is the U.S. government's official web portal to all federal, state and local government web resources and services.